Weather History for KSLN - July, 2012

Change the Weather History Date:

Tuesday, July 10, 2012

  Actual Average Record
Temperature  
Mean Temperature 82 °F 81 °F  
Max Temperature 93 °F 93 °F 111 °F (1934)
Min Temperature 70 °F 69 °F 48 °F (1905)
Degree Days  
Heating Degree Days 0 0  
Month to date heating degree days 0 0  
Since 1 June heating degree days 10 7  
Since 1 July heating degree days 0 0  
Cooling Degree Days 17 16  
Month to date cooling degree days 222 156  
Year to date cooling degree days 1022 609  
Since 1 June cooling degree days 700 481  
Growing Degree Days 31 (Base 50)    
Moisture  
Dew Point 59 °F    
Average Humidity 53    
Maximum Humidity 79    
Minimum Humidity 27    
Precipitation  
Precipitation 0.00 in 0.15 in 0.84 in (1963)
Month to date precipitation 0.31 1.48  
Year to date precipitation 9.90 17.58  
Sea Level Pressure  
Sea Level Pressure 30.06 in    
Wind  
Wind Speed 9 mph (NNE)    
Max Wind Speed 20 mph    
Max Gust Speed 24 mph    
Visibility 10 miles    
Events      
T = Trace of Precipitation, MM = Missing Value Source: NWS Daily Summary

Daily Weather History Graph

Daily Weather History Graph

Search for Another Location

Airport or City:

Trip Planner

Search our weather history database for the weather conditions in past years. The results will help you decide how hot, cold, wet, or windy it might be!

Date:

Astronomy

Jul. 10, 2012 Rise Set
Actual Time 6:14 AM CDT 8:57 PM CDT
Civil Twilight 5:43 AM CDT 9:28 PM CDT
Nautical Twilight 5:04 AM CDT 10:07 PM CDT
Astronomical Twilight 4:19 AM CDT 10:51 PM CDT
Moon 12:18 AM CDT (7/10) 1:36 PM CDT (7/10)
Length of Visible Light 15h 45m
Length of Day
14h 42m
Waning Gibbous, 54% of the Moon is Illuminated
Jul 10
Waning Gibbous
Jul 10
Last Quarter
Jul 18
New
Jul 26
First Quarter
Aug 1
Full

Hourly Weather History & Observations

Time (CDT) Temp. Heat Index Dew Point Humidity Pressure Visibility Wind Dir Wind Speed Gust Speed Precip Events Conditions
12:53 AM 75.0 °F - 61.0 °F 62% 30.08 in 10.0 mi NNW 4.6 mph - N/A   Overcast
1:53 AM 75.0 °F - 62.1 °F 64% 30.08 in 10.0 mi NNW 6.9 mph - N/A   Mostly Cloudy
2:53 AM 73.9 °F - 64.0 °F 71% 30.07 in 10.0 mi North 8.1 mph - N/A   Scattered Clouds
3:53 AM 73.9 °F - 64.0 °F 71% 30.06 in 10.0 mi NNW 5.8 mph - N/A   Clear
4:53 AM 73.0 °F - 64.0 °F 73% 30.06 in 10.0 mi NNW 8.1 mph - N/A   Clear
5:53 AM 71.1 °F - 64.0 °F 78% 30.07 in 10.0 mi NNW 5.8 mph - N/A   Scattered Clouds
6:53 AM 72.0 °F - 64.0 °F 76% 30.08 in 10.0 mi NNW 5.8 mph - N/A   Scattered Clouds
7:53 AM 73.9 °F - 64.9 °F 73% 30.09 in 10.0 mi North 6.9 mph - N/A   Clear
8:53 AM 78.1 °F - 64.0 °F 62% 30.10 in 10.0 mi NNE 9.2 mph - N/A   Clear
9:53 AM 82.0 °F 83.8 °F 64.9 °F 56% 30.10 in 10.0 mi ENE 6.9 mph - N/A   Clear
10:53 AM 86.0 °F 87.3 °F 64.0 °F 48% 30.09 in 10.0 mi NE 11.5 mph - N/A   Clear
11:53 AM 88.0 °F 87.9 °F 61.0 °F 40% 30.08 in 10.0 mi NE 13.8 mph - N/A   Clear
12:53 PM 90.0 °F 89.7 °F 60.1 °F 37% 30.07 in 10.0 mi NE 12.7 mph - N/A   Mostly Cloudy
1:53 PM 91.0 °F 90.0 °F 57.9 °F 33% 30.05 in 10.0 mi NNE 11.5 mph 18.4 mph N/A   Partly Cloudy
2:53 PM 91.9 °F 91.8 °F 61.0 °F 35% 30.04 in 10.0 mi NNE 15.0 mph 24.2 mph N/A   Mostly Cloudy
3:53 PM 90.0 °F 88.8 °F 57.9 °F 34% 30.02 in 10.0 mi NNE 9.2 mph - N/A   Partly Cloudy
4:53 PM 90.0 °F 87.9 °F 55.0 °F 30% 30.01 in 10.0 mi NNE 13.8 mph 21.9 mph N/A   Scattered Clouds
5:53 PM 90.0 °F - 51.1 °F 26% 30.00 in 10.0 mi ENE 11.5 mph 21.9 mph N/A   Clear
6:53 PM 88.0 °F 85.7 °F 53.1 °F 30% 30.01 in 10.0 mi NE 12.7 mph - N/A   Clear
7:53 PM 87.1 °F - 51.1 °F 29% 30.01 in 10.0 mi NE 12.7 mph - N/A   Clear
8:53 PM 84.0 °F - 52.0 °F 33% 30.02 in 10.0 mi NE 11.5 mph - N/A   Clear
9:53 PM 81.0 °F 80.4 °F 53.1 °F 38% 30.04 in 10.0 mi NE 5.8 mph - N/A   Clear
10:53 PM 78.1 °F - 54.0 °F 43% 30.06 in 10.0 mi NE 5.8 mph - N/A   Clear
11:53 PM 75.9 °F - 54.0 °F 46% 30.06 in 10.0 mi NE 6.9 mph - N/A   Clear